Location: *
(42.3442°N, 9.2072°E)
Time: 13:05:46
(UTC+00:00)

STARLINK-29 - Pass Details

Date: 09 April 2020
Orbit: 387 x 401 km, 53.0° (Epoch: 27 May)

Event Time Altitude Azimuth Distance (km) Brightness Sun altitude
Rises 18:34:40 0° 231° (SW) 2,270 7.3 -7.3°
Reaches altitude 10° 18:36:42 10° 231° (SW) 1,421 6.2 -7.7°
Maximum altitude 18:39:53 87° 143° (SE) 398 2.9 -8.2°
Drops below altitude 10° 18:43:06 10° 54° (NE) 1,439 5.4 -8.8°
Enters shadow 18:45:02 - 54° (NE) 2,241 6.4 -9.1°
